Location: Navalmoral
(40.4603°N, 4.7686°W)
Time: 21:52:34
(UTC+00:00)

Cosmos 1821 Rocket - Pass Details

Date: 05 August 2024
Orbit: 943 x 1005 km, 82.9° (Epoch: 17 September)

Event Time Altitude Azimuth Distance (km) Brightness Sun altitude
Rises 20:15:32 0° 182° (S) 3,703 6.7 -8.7°
Reaches altitude 10° 20:18:02 10° 181° (S) 2,763 6.1 -9.2°
Maximum altitude 20:24:24 81° 95° (E) 1,021 4.0 -10.2°
Drops below altitude 10° 20:30:49 10° 9° (N) 2,786 6.7 -11.2°
Sets 20:33:22 0° 9° (N) 3,737 7.4 -11.6°
